Temperature
22 23 23 24 25 25 25 24 25 25 25 24 25 25 26 25 24 24 23 23 23 22 21 19 18 18 17 17 16 16 15 15 14 14 14 13 13 13 13 13 13 12 12 12
22 23 24 25 24 24 24 24 25 25 24 24 25 25 26 25 24 24 24 24 23 22 21 19 18 17 17 17 16 16 15 14 14 14 13 13 13 13 12 12 12 12 12 12
23 24 24 24 24 24 24 24 25 24 24 24 24 25 26 25 24 23 22 22 23 22 21 20 18 18 17 16 16 15 15 14 14 13 13 13 13 13 13 12 12 12 12 12
24 24 24 24 24 24 24 24 24 24 24 25 24 24 26 26 25 24 23 22 22 21 20 19 18 18 17 16 16 15 15 14 14 13 13 13 13 13 12 12 12 12 12 12
24 24 24 24 24 24 24 23 24 24 24 25 25 25 26 25 25 25 24 23 22 21 20 19 18 18 17 16 16 15 15 14 13 13 13 13 13 12 12 12 12 12 12 12
23 23 24 24 24 24 23 23 23 24 25 24 25 25 25 26 26 25 24 23 21 20 20 19 18 17 17 16 16 15 14 14 13 13 13 13 12 12 12 12 12 12 12 12
23 23 23 23 23 23 24 24 24 24 24 24 24 24 25 26 25 25 24 23 22 21 20 19 18 17 17 16 16 15 14 14 13 13 13 13 12 12 12 12 12 12 12 12
24 23 24 24 25 24 25 25 24 23 24 24 24 24 26 25 24 23 22 22 21 21 20 19 18 18 17 16 16 15 14 14 13 13 13 13 12 12 12 12 12 12 12 12
25 24 24 24 24 25 24 25 25 25 24 24 25 25 26 25 24 23 23 22 22 21 20 19 18 17 17 16 16 15 14 14 13 13 13 13 13 12 12 12 12 12 12 12
25 24 24 23 24 23 25 25 24 24 23 24 24 25 25 25 25 25 24 23 22 21 20 19 18 18 17 16 16 15 14 14 14 13 13 13 12 12 12 12 12 12 12 12
25 25 24 24 24 25 24 24 24 24 24 24 24 25 26 26 25 25 25 23 22 21 20 19 18 18 17 16 16 15 15 14 14 13 13 13 12 12 12 12 12 12 12 12
24 25 25 25 24 24 25 25 25 24 24 24 24 25 26 25 25 24 24 23 22 21 20 19 19 18 17 17 16 15 15 14 14 13 13 13 13 12 12 12 12 12 12 12
24 25 24 24 24 23 24 24 24 24 24 24 23 25 26 25 25 24 23 23 22 21 20 19 19 18 18 17 16 16 15 15 14 14 13 13 13 13 13 12 12 12 12 12
23 25 25 24 24 25 24 23 23 24 24 24 24 25 26 26 25 25 24 23 22 21 20 20 19 18 18 17 17 16 15 15 14 14 13 13 13 13 13 12 12 12 12 12
24 25 25 25 24 24 24 24 23 23 24 24 25 25 26 26 26 25 24 23 22 21 20 20 19 19 18 18 17 16 16 15 15 14 14 13 13 13 13 13 12 12 13 12
24 24 24 24 24 23 23 24 24 23 24 24 24 24 26 26 25 24 24 23 22 21 21 20 19 19 18 18 17 17 16 15 15 15 14 14 13 13 13 13 13 13 13 12
24 24 24 24 24 23 24 25 24 24 24 24 24 25 26 25 25 24 24 23 22 21 21 20 20 19 19 19 18 17 16 16 15 15 14 14 14 13 13 13 13 13 13 13
24 24 24 24 24 22 25 25 24 24 24 25 24 25 25 25 24 23 23 22 22 21 21 20 20 19 19 18 18 17 16 16 15 15 14 14 14 13 13 13 13 13 13 13
22 23 23 23 23 23 24 24 24 24 24 25 25 25 24 23 23 24 23 22 22 21 21 21 20 20 19 18 18 17 17 16 15 15 15 14 14 14 14 13 13 13 13 13
20 21 23 22 22 22 24 24 23 24 24 25 24 24 23 23 24 26 23 22 21 21 21 21 20 20 19 18 18 17 17 16 16 15 15 15 14 14 14 14 13 13 13 13
21 21 21 22 22 23 24 22 22 23 24 23 23 23 22 23 24 23 22 21 21 21 21 21 20 20 19 18 18 17 17 16 16 15 15 15 15 14 14 14 14 14 13 13
23 22 22 22 22 23 23 22 23 24 23 22 22 22 21 21 21 21 21 21 21 21 21 21 20 19 19 18 18 17 17 16 16 16 15 15 15 15 14 14 14 14 13 13
22 23 23 23 23 22 21 21 21 21 21 21 21 20 20 20 20 20 20 20 21 21 21 21 20 19 19 18 18 17 17 16 16 16 15 15 15 14 14 14 14 13 13 13
21 20 20 21 22 22 20 20 19 19 19 19 19 19 19 20 20 20 20 20 20 20 20 20 20 19 19 18 18 17 17 16 16 15 15 15 14 14 14 14 13 13 13 13
20 19 20 20 22 21 20 19 19 18 19 19 19 19 19 19 19 20 20 20 20 20 20 20 19 19 19 18 18 17 17 16 16 15 15 14 14 14 14 13 13 13 13 13
19 19 19 20 20 20 20 18 17 17 17 18 18 18 18 18 19 19 19 19 19 19 19 19 19 19 18 18 18 17 17 16 15 15 15 14 14 14 13 13 13 13 12 12
Wind_Speed
12 11 13 13 12 6 4 5 5 3 2 5 8 9 7 6 8 9 9 10 10 9 7 7 7 6 6 5 3 2 1 1 2 3 3 4 4 4 4 4 5 5 6 6
11 13 12 9 8 7 6 7 5 2 1 4 7 9 8 7 9 9 9 9 9 8 8 8 8 7 6 4 3 2 1 1 2 2 3 4 4 4 4 4 5 6 6 6
12 8 9 9 10 9 8 7 5 3 2 4 6 8 7 5 6 7 8 8 8 8 9 9 9 8 6 5 3 2 1 0 1 2 3 3 3 3 3 4 4 5 6 5
8 5 9 10 9 9 7 4 5 5 6 3 3 6 4 4 6 7 8 8 9 9 8 8 9 8 7 5 3 2 1 1 1 2 3 4 4 5 5 5 5 5 5 5
6 8 10 10 7 7 2 1 3 4 6 6 6 7 3 3 5 6 6 8 8 9 9 9 9 8 6 5 4 3 2 1 1 2 2 4 4 4 4 5 5 5 5 5
4 3 4 4 2 4 5 4 3 4 5 6 3 5 4 2 2 3 4 6 8 8 9 9 8 7 6 6 5 4 3 2 1 2 3 3 4 4 5 5 6 5 4 4
6 5 4 4 6 6 7 6 4 4 4 3 1 5 4 1 1 2 3 4 7 8 9 9 9 9 7 7 6 5 4 3 2 3 3 3 3 4 5 5 5 6 5 5
7 7 6 5 5 5 7 6 4 4 3 3 3 5 2 1 2 3 4 4 6 8 9 9 9 9 8 8 7 5 4 3 3 3 3 3 3 3 4 5 5 5 5 5
5 5 4 2 2 3 4 4 3 5 5 5 3 3 4 3 4 5 5 6 7 8 9 9 9 9 8 8 7 6 5 4 3 3 3 3 3 3 4 5 5 5 5 5
1 4 5 5 5 2 2 2 3 4 4 5 4 5 3 2 3 5 6 7 7 8 9 9 9 9 8 7 7 6 5 4 3 3 3 2 3 3 4 5 5 5 6 5
2 3 5 6 6 5 5 4 4 4 4 6 5 3 1 3 3 4 5 6 7 8 9 9 9 9 8 8 7 7 6 5 4 4 3 3 3 3 4 4 4 5 5 5
2 3 4 4 2 1 5 5 7 6 5 5 7 5 1 4 4 5 6 6 7 8 9 9 9 9 9 9 8 7 7 6 5 4 3 3 3 3 3 3 4 4 4 4
2 3 4 5 5 5 5 5 6 6 6 7 8 6 2 4 6 7 7 7 7 8 9 9 9 10 10 9 9 8 7 6 5 4 4 4 3 3 3 3 4 4 4 4
3 4 5 5 3 2 5 6 7 9 9 10 11 13 10 9 9 9 8 8 8 9 10 10 10 10 10 10 9 9 8 7 6 5 4 4 3 3 3 3 3 4 4 3
4 6 6 6 6 5 8 9 10 12 13 14 14 15 14 12 10 10 8 8 8 10 11 11 12 11 11 10 10 9 8 8 7 6 5 4 3 3 3 3 3 3 3 3
3 6 7 8 6 7 11 13 13 14 14 15 16 17 14 12 9 9 9 9 10 11 11 12 12 12 12 12 11 10 9 8 8 7 5 4 3 3 3 3 3 3 3 3
4 5 8 10 6 8 11 10 11 11 11 12 13 13 10 9 9 9 9 9 11 11 11 11 12 13 13 12 12 11 10 9 8 7 6 5 4 3 3 3 3 3 3 3
7 8 7 9 9 11 5 1 5 9 10 11 13 13 11 10 9 8 8 9 10 10 10 10 11 12 12 12 11 10 10 10 9 8 7 5 4 4 3 2 2 3 2 2
8 8 7 8 10 10 8 5 5 6 7 6 8 9 8 6 6 6 5 7 8 8 8 9 10 11 11 12 12 11 11 10 9 8 7 6 6 4 4 3 3 3 2 2
4 7 8 8 9 9 5 0 2 5 6 4 5 6 5 3 5 4 1 4 5 6 6 8 9 11 11 11 12 12 11 11 10 9 8 7 6 5 5 4 3 2 2 3
5 6 9 11 11 8 4 1 4 6 3 7 7 7 5 5 6 6 4 3 4 5 7 8 10 10 11 11 12 12 12 11 9 8 7 7 6 6 5 4 3 3 3 2
8 7 8 8 9 7 2 4 3 5 8 8 9 8 8 9 9 7 5 3 4 5 7 9 10 10 10 12 12 12 11 9 9 8 7 7 6 5 4 4 4 3 3 3
7 7 6 7 5 2 1 2 5 7 9 9 10 11 10 10 9 8 6 5 5 6 7 9 10 11 11 12 12 12 11 10 9 9 8 7 6 5 5 4 4 3 3 3
6 4 6 8 9 7 7 7 7 8 9 11 12 12 11 11 11 9 7 6 6 7 8 9 11 12 12 12 12 11 11 10 10 10 9 7 7 6 5 3 3 3 2 2
9 6 9 13 13 11 8 7 10 11 12 13 13 12 12 12 12 10 8 8 7 7 7 9 11 12 12 12 12 11 11 11 11 10 9 8 7 6 5 4 1 1 1 2
13 13 14 15 12 12 13 13 14 14 14 14 14 14 13 11 12 11 10 8 7 7 8 9 11 11 12 13 13 12 12 12 12 10 9 7 7 6 5 5 5 6 5 7
Wind_Direction
175 188 198 198 207 224 218 234 248 264 194 230 249 260 258 227 222 226 221 218 218 215 200 189 190 192 198 200 210 210 271 332 335 340 329 328 332 328 329 332 332 322 317 315
174 202 202 199 203 222 234 247 256 264 177 243 267 271 265 239 231 232 231 222 216 207 195 186 189 188 197 194 202 216 253 326 340 348 330 325 323 320 329 327 329 330 326 320
185 185 181 192 203 215 234 246 258 275 242 227 277 270 246 218 220 224 228 229 218 205 202 191 190 188 189 192 194 202 247 270 338 336 326 318 315 303 322 334 337 335 330 324
192 172 182 197 207 219 233 247 249 250 256 257 262 286 256 209 220 220 217 212 208 199 199 191 189 190 189 186 185 198 197 257 317 311 323 332 328 332 337 333 332 329 331 330
175 180 190 202 208 216 229 108 221 245 259 268 244 270 261 186 224 206 201 202 199 195 194 190 190 188 186 178 180 192 198 229 287 312 322 310 321 329 328 329 331 329 338 335
127 157 204 194 150 181 154 162 168 213 248 259 258 261 273 197 210 180 180 187 191 188 186 187 183 183 181 175 178 187 202 210 247 280 287 306 323 323 326 330 333 333 337 336
151 155 152 159 154 165 204 228 233 227 230 261 168 257 266 30 248 239 208 185 184 183 184 184 183 186 183 183 185 192 203 215 233 267 285 307 314 313 319 326 331 329 333 338
173 168 175 190 216 202 209 239 264 286 287 297 225 249 277 115 246 245 228 201 187 185 187 187 187 187 187 188 190 199 207 218 230 261 285 300 305 303 319 321 322 324 329 330
182 145 128 157 197 212 191 218 295 289 291 281 257 262 276 200 220 210 202 194 193 190 189 190 188 189 188 190 192 199 206 215 226 250 272 289 304 307 313 314 317 321 322 322
219 154 147 148 159 77 304 170 203 251 281 284 280 273 270 226 214 201 203 203 196 191 191 191 189 190 190 190 191 194 205 215 222 241 259 283 296 301 307 313 323 324 325 326
249 191 160 181 213 207 175 195 230 251 274 288 296 304 336 268 244 224 213 208 201 196 194 191 189 190 188 189 190 194 200 210 221 234 246 263 281 294 300 311 321 324 326 328
247 249 193 182 139 300 239 236 229 257 260 261 285 293 133 238 246 239 232 216 206 201 197 192 189 186 188 193 196 199 202 206 212 226 240 260 278 281 291 308 318 325 331 334
195 237 218 189 184 190 216 221 234 259 269 259 265 277 159 232 243 239 237 227 212 202 198 194 191 193 193 195 198 201 203 206 205 214 233 249 258 277 292 303 315 322 330 336
249 251 265 275 304 250 228 214 218 231 256 263 262 278 280 269 261 252 242 234 222 211 203 199 196 196 195 195 197 200 201 201 202 208 225 241 257 269 285 299 310 318 327 332
251 265 264 277 281 263 260 252 231 236 257 270 279 281 283 283 274 263 249 237 224 214 208 204 201 198 194 194 196 197 198 197 198 205 219 232 246 256 273 286 294 310 321 323
255 265 267 265 258 257 261 259 251 249 257 263 272 277 281 283 274 260 246 233 226 220 214 208 204 199 196 195 195 193 194 194 196 204 212 215 235 243 257 272 285 299 307 316
243 258 269 274 273 271 265 258 248 246 244 254 266 278 289 283 269 260 251 235 228 224 216 208 204 200 198 197 193 190 192 188 194 200 203 208 221 231 245 257 272 282 285 300
248 251 261 274 274 265 286 302 255 254 263 259 265 278 286 285 283 270 254 240 232 224 215 207 202 197 195 192 189 187 185 188 194 198 201 204 214 223 229 239 259 272 286 294
239 241 251 262 268 272 276 257 228 242 273 292 279 286 295 301 280 256 238 237 234 223 212 202 197 190 188 186 184 184 187 190 195 199 204 203 207 213 219 226 240 259 276 287
206 229 243 247 259 265 276 186 216 252 253 12 333 317 313 285 271 283 296 237 231 214 200 189 184 183 183 182 182 187 190 193 197 199 204 203 205 210 217 227 237 238 249 268
200 211 231 245 255 263 297 122 190 239 323 5 347 332 305 267 286 326 316 254 220 199 187 180 179 182 182 178 181 191 194 196 194 193 197 199 200 208 216 223 227 231 239 255
245 238 234 240 247 257 111 154 219 328 342 335 334 330 309 292 299 305 297 262 215 193 185 182 181 181 178 179 185 193 194 190 183 183 188 194 198 204 206 211 223 230 231 237
242 252 257 241 258 13 143 268 319 327 319 327 329 325 313 298 293 291 282 261 228 207 192 189 187 181 180 184 191 195 188 182 179 180 185 190 192 195 203 206 210 218 225 242
252 260 259 261 263 275 285 294 300 309 311 317 318 315 307 295 291 287 275 257 234 215 200 191 189 189 188 187 191 194 182 179 182 185 186 187 189 188 188 193 210 217 228 236
271 259 264 268 275 285 276 298 314 317 314 313 314 311 304 295 290 285 274 256 237 220 205 198 199 199 193 187 187 187 181 181 186 188 186 188 185 180 176 159 110 168 71 18
253 254 261 269 284 288 291 307 315 311 310 312 311 308 303 293 287 284 274 259 240 224 211 205 202 200 196 189 187 184 182 186 190 190 187 184 180 174 172 159 130 71 74 73
Height
1494 1496 1497 1495 1495 1496 1497 1500 1501 1500 1500 1503 1501 1498 1497 1500 1503 1504 1505 1507 1509 1511 1514 1515 1516 1517 1518 1519 1519 1519 1519 1518 1516 1516 1514 1513 1512 1510 1508 1506 1503 1501 1500 1498
1495 1495 1492 1493 1496 1498 1499 1501 1501 1500 1501 1501 1499 1496 1493 1496 1499 1500 1501 1503 1505 1509 1511 1513 1514 1515 1517 1517 1518 1518 1517 1517 1516 1514 1513 1511 1510 1508 1506 1504 1502 1500 1498 1496
1491 1490 1492 1496 1498 1500 1499 1500 1500 1501 1502 1500 1501 1496 1491 1492 1496 1498 1500 1501 1503 1506 1508 1511 1512 1514 1515 1516 1516 1516 1516 1515 1514 1513 1512 1510 1509 1507 1506 1504 1501 1499 1496 1495
1489 1491 1494 1495 1496 1496 1500 1497 1499 1501 1502 1500 1502 1503 1489 1488 1492 1494 1496 1499 1501 1504 1506 1508 1510 1512 1513 1514 1514 1515 1514 1514 1513 1512 1511 1510 1508 1507 1505 1503 1500 1498 1495 1493
1490 1491 1493 1495 1494 1496 1498 1499 1499 1500 1500 1500 1498 1500 1488 1488 1489 1489 1492 1496 1499 1501 1504 1506 1508 1510 1512 1512 1513 1513 1513 1513 1512 1511 1509 1508 1508 1506 1504 1502 1499 1497 1495 1492
1491 1493 1492 1492 1496 1498 1500 1501 1501 1500 1498 1506 1498 1500 1494 1484 1485 1487 1490 1494 1497 1499 1502 1504 1506 1508 1509 1510 1511 1511 1511 1511 1510 1509 1508 1508 1506 1504 1503 1501 1499 1497 1495 1492
1493 1493 1494 1496 1498 1500 1499 1500 1506 1507 1507 1503 1497 1500 1492 1483 1485 1487 1489 1492 1495 1497 1500 1502 1504 1506 1507 1508 1509 1509 1510 1509 1509 1508 1508 1507 1505 1504 1502 1500 1498 1496 1494 1492
1494 1497 1492 1493 1492 1494 1494 1495 1506 1513 1510 1500 1498 1497 1485 1484 1487 1488 1490 1491 1493 1496 1498 1500 1502 1504 1505 1506 1507 1508 1508 1508 1508 1507 1507 1506 1504 1503 1501 1499 1497 1496 1494 1491
1487 1493 1492 1493 1493 1492 1495 1494 1493 1497 1500 1503 1493 1489 1482 1482 1484 1486 1488 1490 1492 1494 1496 1498 1500 1501 1503 1504 1505 1506 1506 1507 1506 1506 1505 1505 1503 1502 1500 1499 1497 1495 1493 1491
1483 1491 1492 1494 1494 1496 1493 1491 1496 1499 1508 1506 1498 1491 1486 1480 1480 1482 1485 1487 1490 1492 1494 1496 1498 1499 1501 1502 1503 1504 1504 1505 1505 1504 1504 1503 1502 1501 1499 1498 1496 1494 1493 1490
1484 1487 1493 1492 1492 1490 1495 1496 1494 1494 1497 1504 1504 1493 1477 1478 1478 1480 1482 1485 1487 1489 1491 1493 1495 1497 1498 1500 1501 1502 1502 1503 1503 1503 1503 1502 1501 1500 1499 1497 1495 1493 1492 1490
1485 1483 1487 1488 1489 1490 1489 1488 1491 1497 1496 1497 1499 1491 1475 1477 1478 1480 1481 1483 1485 1487 1489 1491 1492 1494 1496 1497 1499 1500 1501 1501 1501 1501 1501 1501 1500 1499 1498 1497 1495 1493 1492 1490
1487 1486 1491 1493 1494 1492 1490 1490 1490 1490 1491 1493 1498 1489 1474 1476 1477 1478 1479 1481 1482 1484 1486 1488 1489 1491 1493 1495 1496 1498 1498 1499 1499 1499 1499 1499 1499 1498 1497 1496 1494 1493 1491 1490
1488 1483 1488 1495 1489 1485 1488 1490 1491 1490 1490 1489 1487 1481 1472 1472 1473 1474 1476 1478 1479 1481 1482 1484 1486 1488 1490 1492 1493 1495 1496 1497 1497 1498 1498 1498 1498 1497 1496 1495 1493 1492 1491 1490
1487 1483 1482 1482 1483 1485 1485 1485 1487 1487 1482 1483 1477 1475 1470 1467 1469 1470 1472 1474 1475 1477 1478 1480 1482 1484 1486 1488 1490 1492 1493 1494 1495 1496 1496 1496 1496 1496 1495 1494 1492 1491 1490 1489
1485 1484 1482 1483 1482 1483 1484 1481 1480 1481 1479 1477 1475 1472 1464 1465 1466 1467 1468 1469 1471 1472 1474 1475 1478 1480 1482 1485 1487 1489 1491 1492 1493 1494 1495 1495 1494 1494 1493 1493 1492 1491 1489 1489
1484 1483 1485 1483 1479 1482 1481 1472 1473 1473 1471 1472 1471 1465 1461 1462 1462 1463 1463 1465 1466 1467 1469 1471 1473 1476 1478 1481 1484 1486 1488 1489 1491 1492 1493 1493 1493 1493 1492 1491 1491 1490 1489 1488
1482 1482 1482 1482 1482 1490 1471 1466 1467 1468 1466 1464 1463 1461 1461 1461 1460 1460 1460 1461 1462 1463 1465 1467 1469 1472 1475 1478 1480 1483 1485 1487 1488 1490 1491 1491 1491 1491 1491 1490 1489 1489 1488 1487
1483 1482 1482 1482 1483 1477 1467 1464 1466 1467 1464 1460 1459 1459 1459 1459 1458 1456 1456 1457 1458 1460 1462 1463 1466 1469 1472 1474 1477 1479 1482 1484 1485 1487 1488 1489 1489 1489 1489 1489 1488 1488 1487 1486
1484 1482 1480 1481 1484 1482 1467 1463 1464 1466 1463 1459 1459 1458 1458 1458 1455 1452 1454 1454 1455 1457 1458 1460 1463 1466 1468 1471 1474 1476 1479 1481 1482 1484 1485 1486 1487 1487 1487 1487 1487 1486 1486 1485
1480 1480 1481 1478 1478 1468 1460 1463 1466 1469 1463 1460 1459 1458 1458 1457 1455 1454 1453 1453 1453 1454 1455 1457 1460 1462 1465 1468 1470 1473 1475 1478 1479 1481 1482 1483 1484 1485 1485 1485 1485 1485 1484 1484
1472 1473 1474 1473 1477 1471 1462 1463 1463 1461 1461 1460 1459 1458 1457 1455 1454 1452 1452 1451 1451 1451 1453 1455 1457 1459 1462 1464 1467 1469 1472 1474 1476 1477 1479 1480 1481 1482 1482 1483 1483 1483 1483 1482
1470 1467 1465 1465 1464 1462 1463 1463 1463 1463 1461 1459 1458 1457 1455 1453 1451 1450 1449 1449 1449 1449 1450 1452 1454 1456 1458 1460 1463 1466 1468 1470 1472 1474 1476 1477 1478 1479 1480 1480 1481 1481 1480 1480
1467 1470 1468 1464 1459 1460 1462 1462 1462 1461 1460 1458 1456 1454 1452 1451 1449 1447 1446 1446 1445 1446 1447 1448 1450 1452 1454 1456 1459 1462 1464 1466 1468 1471 1472 1474 1475 1476 1477 1477 1478 1478 1478 1478
1468 1468 1465 1462 1459 1459 1459 1459 1459 1458 1457 1455 1453 1451 1449 1447 1446 1445 1443 1442 1442 1442 1443 1444 1446 1448 1450 1452 1455 1457 1460 1462 1465 1467 1469 1471 1472 1473 1473 1474 1474 1474 1474 1475
1466 1465 1463 1459 1458 1458 1456 1457 1456 1454 1453 1451 1449 1446 1445 1444 1442 1440 1439 1438 1437 1437 1438 1439 1441 1443 1445 1447 1450 1452 1455 1458 1461 1463 1465 1467 1468 1469 1470 1471 1471 1471 1471 1471